When you browse on this site, cookies collect data to enhance your experience and personalize the content and advertising you see.
Visit our Privacy Policy to learn more. By continuing to use the site, you agree to this use of cookies and data.
  • In Hungary
  • List of Countries
  • For 7 days
  • Water Temperature
  • Satellite Maps
  • Weather Map
  • News
  • Weather Widgets
  • user-avatar
    Login

    Hourly Weather Pozuelo de Alarcon

    Today, 21 January, Monday

    Time Temperature Precipitation Wind Pressure Humidity
    00:00 +4°C° 0 mm 2 mps 703 mmHg 73%
    01:00 +3°C° 0 mm 2 mps 703 mmHg 75%
    02:00 +3°C° 0 mm 2 mps 703 mmHg 76%
    03:00 +3°C° 0 mm 1 mps 703 mmHg 78%
    04:00 +2°C° 0 mm 2 mps 703 mmHg 79%
    05:00 +2°C° 0 mm 2 mps 703 mmHg 79%
    06:00 +2°C° 0 mm 2 mps 703 mmHg 79%
    07:00 +3°C° 0 mm 2 mps 704 mmHg 76%
    08:00 +3°C° 0 mm 2 mps 704 mmHg 73%
    09:00 +4°C° 0 mm 2 mps 704 mmHg 70%
    10:00 +4°C° 0 mm 3 mps 704 mmHg 62%
    11:00 +7°C° 0 mm 3 mps 704 mmHg 54%
    12:00 +7°C° 0 mm 4 mps 704 mmHg 46%
    13:00 +7°C° 0 mm 4 mps 704 mmHg 45%
    14:00 +7°C° 0 mm 4 mps 704 mmHg 45%
    15:00 +7°C° 0 mm 5 mps 704 mmHg 45%
    16:00 +6°C° 0 mm 4 mps 704 mmHg 50%
    17:00 +5°C° 0 mm 3 mps 704 mmHg 55%
    18:00 +5°C° 0 mm 2 mps 704 mmHg 60%
    19:00 +4°C° 0 mm 2 mps 704 mmHg 63%
    20:00 +4°C° 0 mm 2 mps 705 mmHg 66%
    21:00 +3°C° 0 mm 2 mps 705 mmHg 69%
    22:00 +3°C° 0 mm 1 mps 705 mmHg 71%
    23:00 +3°C° 0 mm 1 mps 704 mmHg 73%

    Tomorrow, 22 January, Tuesday

    Time Temperature Precipitation Wind Pressure Humidity
    00:00 +3°C° 0 mm 1 mps 704 mmHg 75%
    01:00 +2°C° 0 mm 1 mps 704 mmHg 75%
    02:00 +2°C° 0 mm 1 mps 704 mmHg 75%
    03:00 +2°C° 0 mm 1 mps 703 mmHg 75%
    04:00 +3°C° 0 mm 1 mps 703 mmHg 74%
    05:00 +3°C° 0 mm 1 mps 703 mmHg 72%
    06:00 +3°C° 0 mm 1 mps 702 mmHg 70%
    07:00 +3°C° 0 mm 2 mps 702 mmHg 67%
    08:00 +3°C° 0 mm 2 mps 702 mmHg 65%
    09:00 +4°C° 0 mm 2 mps 702 mmHg 62%
    10:00 +4°C° 0 mm 3 mps 702 mmHg 59%
    11:00 +6°C° 0 mm 4 mps 701 mmHg 55%
    12:00 +7°C° 0 mm 4 mps 701 mmHg 52%
    13:00 +7°C° 0.2 mm 5 mps 700 mmHg 56%
    14:00 +7°C° 0.2 mm 6 mps 699 mmHg 60%
    15:00 +7°C° 0.2 mm 6 mps 699 mmHg 63%
    16:00 +7°C° 0.2 mm 6 mps 699 mmHg 63%
    17:00 +5°C° 0.2 mm 6 mps 699 mmHg 62%
    18:00 +5°C° 0.2 mm 6 mps 699 mmHg 62%
    19:00 +5°C° 0 mm 5 mps 699 mmHg 62%
    20:00 +4°C° 0 mm 4 mps 699 mmHg 63%
    21:00 +4°C° 0 mm 3 mps 699 mmHg 64%
    22:00 +3°C° 0 mm 4 mps 699 mmHg 67%
    23:00 +3°C° 0 mm 4 mps 699 mmHg 70%

    Day after tomorrow, 23 January, Wednesday

    Time Temperature Precipitation Wind Pressure Humidity
    00:00 +3°C° 0 mm 4 mps 699 mmHg 74%
    01:00 +3°C° 0 mm 4 mps 699 mmHg 74%
    02:00 +1°C° 0 mm 4 mps 699 mmHg 75%
    03:00 +1°C° 0 mm 4 mps 699 mmHg 75%
    04:00 +1°C° 0 mm 5 mps 699 mmHg 76%
    05:00 +1°C° 0 mm 5 mps 698 mmHg 77%
    06:00 +1°C° 0 mm 6 mps 698 mmHg 78%
    07:00 +2°C° 0 mm 6 mps 698 mmHg 77%
    08:00 +3°C° 0 mm 7 mps 697 mmHg 75%
    09:00 +4°C° 0 mm 8 mps 697 mmHg 73%
    10:00 +6°C° 0 mm 9 mps 697 mmHg 67%
    11:00 +7°C° 0 mm 10 mps 697 mmHg 61%
    12:00 +9°C° 0 mm 11 mps 697 mmHg 54%
    13:00 +11°C° 0 mm 11 mps 696 mmHg 53%
    14:00 +11°C° 0 mm 10 mps 696 mmHg 51%
    15:00 +11°C° 0 mm 10 mps 695 mmHg 49%
    16:00 +10°C° 0 mm 9 mps 696 mmHg 53%
    17:00 +9°C° 0 mm 7 mps 696 mmHg 57%
    18:00 +8°C° 0 mm 5 mps 696 mmHg 60%
    19:00 +7°C° 0 mm 5 mps 697 mmHg 63%
    20:00 +7°C° 0 mm 5 mps 697 mmHg 66%
    21:00 +6°C° 0 mm 5 mps 697 mmHg 70%
    22:00 +6°C° 0 mm 4 mps 697 mmHg 72%
    23:00 +6°C° 0 mm 4 mps 697 mmHg 75%

    24 January, Thursday

    Time Temperature Precipitation Wind Pressure Humidity
    00:00 +5°C° 0 mm 4 mps 697 mmHg 78%
    01:00 +5°C° 0 mm 3 mps 697 mmHg 79%
    02:00 +5°C° 0 mm 3 mps 697 mmHg 81%
    03:00 +6°C° 0 mm 2 mps 697 mmHg 82%
    04:00 +6°C° 0 mm 2 mps 697 mmHg 81%
    05:00 +6°C° 0 mm 2 mps 697 mmHg 80%
    06:00 +5°C° 0 mm 2 mps 698 mmHg 80%
    07:00 +5°C° 0 mm 3 mps 698 mmHg 76%
    08:00 +5°C° 0 mm 3 mps 698 mmHg 73%
    09:00 +7°C° 0 mm 3 mps 699 mmHg 70%
    10:00 +7°C° 0 mm 5 mps 699 mmHg 62%
    11:00 +6°C° 0 mm 7 mps 700 mmHg 55%
    12:00 +7°C° 0 mm 9 mps 700 mmHg 47%
    13:00 +7°C° 0 mm 8 mps 700 mmHg 46%
    14:00 +8°C° 0 mm 7 mps 700 mmHg 44%
    15:00 +8°C° 0 mm 6 mps 700 mmHg 43%
    16:00 +7°C° 0 mm 5 mps 701 mmHg 47%
    17:00 +6°C° 0 mm 4 mps 701 mmHg 51%
    18:00 +5°C° 0 mm 4 mps 701 mmHg 55%
    19:00 +4°C° 0 mm 3 mps 702 mmHg 58%
    20:00 +4°C° 0 mm 3 mps 702 mmHg 60%
    21:00 +3°C° 0 mm 3 mps 703 mmHg 62%
    22:00 +4°C° 0 mm 2 mps 703 mmHg 65%
    23:00 +5°C° 0 mm 1 mps 703 mmHg 67%

    25 January, Friday

    Time Temperature Precipitation Wind Pressure Humidity
    00:00 +4°C° 0 mm 1 mps 703 mmHg 70%
    01:00 +4°C° 0 mm 1 mps 703 mmHg 72%
    02:00 +4°C° 0 mm 1 mps 703 mmHg 73%
    03:00 +4°C° 0 mm 1 mps 703 mmHg 75%
    04:00 +4°C° 0 mm 1 mps 703 mmHg 76%
    05:00 +4°C° 0 mm 1 mps 703 mmHg 77%
    06:00 +3°C° 0 mm 2 mps 703 mmHg 79%
    07:00 +4°C° 0 mm 2 mps 704 mmHg 76%
    08:00 +5°C° 0 mm 2 mps 704 mmHg 73%
    09:00 +6°C° 0 mm 2 mps 705 mmHg 70%
    10:00 +8°C° 0 mm 3 mps 705 mmHg 63%
    11:00 +10°C° 0 mm 4 mps 705 mmHg 56%
    12:00 +10°C° 0 mm 6 mps 705 mmHg 49%
    13:00 +11°C° 0 mm 6 mps 704 mmHg 49%
    14:00 +12°C° 0 mm 5 mps 704 mmHg 48%
    15:00 +12°C° 0 mm 5 mps 704 mmHg 48%
    16:00 +11°C° 0 mm 4 mps 704 mmHg 54%
    17:00 +9°C° 0 mm 3 mps 704 mmHg 60%
    18:00 +8°C° 0 mm 2 mps 704 mmHg 67%
    19:00 +7°C° 0 mm 2 mps 705 mmHg 70%
    20:00 +7°C° 0 mm 2 mps 705 mmHg 73%
    21:00 +6°C° 0 mm 2 mps 705 mmHg 76%
    22:00 +6°C° 0 mm 2 mps 705 mmHg 77%
    23:00 +5°C° 0 mm 2 mps 705 mmHg 78%

    26 January, Saturday

    Time Temperature Precipitation Wind Pressure Humidity
    00:00 +6°C° 0 mm 1 mps 706 mmHg 79%
    01:00 +5°C° 0 mm 1 mps 705 mmHg 79%
    02:00 +5°C° 0 mm 1 mps 705 mmHg 79%
    03:00 +5°C° 0 mm 1 mps 705 mmHg 78%
    04:00 +4°C° 0 mm 1 mps 705 mmHg 79%
    05:00 +4°C° 0 mm 1 mps 705 mmHg 79%
    06:00 +3°C° 0 mm 0 mps 704 mmHg 80%
    07:00 +4°C° 0 mm 0 mps 705 mmHg 76%
    08:00 +5°C° 0 mm 1 mps 705 mmHg 73%
    09:00 +6°C° 0 mm 1 mps 705 mmHg 70%
    10:00 +8°C° 0 mm 1 mps 705 mmHg 64%
    11:00 +9°C° 0 mm 2 mps 704 mmHg 59%
    12:00 +10°C° 0 mm 2 mps 704 mmHg 53%
    13:00 +11°C° 0 mm 3 mps 703 mmHg 48%
    14:00 +12°C° 0 mm 3 mps 703 mmHg 44%
    15:00 +14°C° 0 mm 4 mps 702 mmHg 40%
    16:00 +12°C° 0 mm 4 mps 702 mmHg 45%
    17:00 +11°C° 0 mm 4 mps 702 mmHg 50%
    18:00 +9°C° 0 mm 3 mps 702 mmHg 55%
    19:00 +9°C° 0 mm 3 mps 702 mmHg 58%
    20:00 +8°C° 0 mm 3 mps 702 mmHg 61%
    21:00 +7°C° 0 mm 3 mps 702 mmHg 64%
    22:00 +7°C° 0 mm 3 mps 702 mmHg 66%
    23:00 +5°C° 0 mm 3 mps 702 mmHg 68%
    Show more